Terminal Aerodrome Forecast
Issued by NWS

Home | Current Version | Previous Version | Text Only | Print | Product List | Glossary On
Versions: 1 2 3 4 5 6 7 8 9 10 11 12
000
FTUS42 TJSJ 220500
TAFJMZ
TAF
TJMZ 220522Z 2206/2306 06005KT P6SM FEW035
     FM221750 28010KT P6SM SCT040
     FM222300 06005KT P6SM FEW035
      AMD NOT SKED=

USA.gov is the U.S. government's official web portal to all federal, state and local government web resources and services.